Total_Precipitation_Accumulation
2.11 2.27 2.10 1.86 1.84 1.82 2.14 2.55 2.82 2.52 2.15 1.96 1.83 1.81 1.89 1.98 2.21 2.07 2.12 2.14 1.90 1.65 1.45 1.36 1.32 1.28 1.25 1.29 1.35 1.38 1.43 1.55 1.76 1.99 2.21 2.50 2.81 3.14
2.29 2.30 2.16 1.96 2.04 1.89 1.97 2.30 2.58 2.78 2.45 1.80 1.82 1.76 1.88 1.78 2.09 1.96 2.10 2.10 1.80 1.64 1.46 1.38 1.30 1.24 1.20 1.20 1.24 1.31 1.33 1.32 1.38 1.51 1.66 1.80 1.93 2.11
2.41 2.32 2.23 2.23 2.23 2.07 2.15 2.29 2.37 2.68 2.63 2.02 1.89 2.01 2.10 2.05 2.13 2.04 1.96 1.98 1.81 1.74 1.50 1.37 1.27 1.20 1.20 1.16 1.16 1.15 1.19 1.19 1.20 1.25 1.33 1.41 1.46 1.51
2.72 2.82 2.55 2.49 2.46 2.27 2.28 2.29 2.34 2.56 2.60 2.38 2.17 2.17 2.25 2.23 2.23 2.04 1.73 1.65 1.69 1.84 1.67 1.49 1.34 1.24 1.18 1.14 1.12 1.10 1.10 1.13 1.16 1.16 1.18 1.22 1.27 1.30
2.57 2.79 2.77 2.87 2.59 2.56 2.48 2.37 2.32 2.30 2.48 2.35 2.16 2.31 2.35 2.35 2.30 1.95 1.78 1.81 1.66 1.88 1.83 1.55 1.38 1.28 1.18 1.10 1.05 1.03 1.02 1.04 1.09 1.13 1.13 1.11 1.11 1.13
2.33 2.42 2.54 2.81 2.77 2.79 2.61 2.59 2.64 2.61 2.67 2.56 2.44 2.53 2.67 2.68 2.55 2.21 2.06 1.95 1.82 1.65 1.76 1.58 1.49 1.42 1.29 1.15 1.06 1.00 0.99 1.01 1.04 1.06 1.11 1.12 1.10 1.07
2.30 2.26 2.23 2.45 2.53 2.56 2.31 2.44 2.67 2.70 2.71 2.66 2.61 2.66 2.69 2.83 2.54 2.35 2.19 2.15 2.03 1.77 1.67 1.47 1.43 1.35 1.32 1.30 1.22 1.10 1.03 1.03 1.05 1.07 1.07 1.07 1.09 1.13
2.52 2.45 2.31 2.25 2.23 2.27 2.29 2.36 2.47 2.46 2.50 2.56 2.50 2.54 2.61 2.74 2.85 2.72 2.51 2.31 2.06 1.80 1.80 1.57 1.45 1.40 1.29 1.19 1.28 1.24 1.14 1.08 1.04 1.05 1.06 1.08 1.09 1.09
2.44 2.43 2.16 2.02 2.22 2.14 2.30 2.33 2.16 2.09 2.08 2.18 2.20 2.24 2.66 2.94 3.23 2.92 2.73 2.54 2.24 2.06 1.97 1.63 1.49 1.40 1.28 1.25 1.37 1.21 1.11 1.05 1.01 1.01 1.03 1.04 1.06 1.08
2.07 2.19 2.15 2.06 2.09 2.18 2.12 1.91 1.73 1.73 1.77 1.67 1.68 1.93 2.36 2.89 3.19 3.16 3.13 2.87 2.53 2.13 1.93 1.66 1.43 1.34 1.25 1.27 1.43 1.31 1.16 1.06 1.01 0.98 0.93 0.93 0.97 1.02
1.84 1.85 1.89 1.79 1.91 2.00 1.92 1.71 1.58 1.53 1.56 1.57 1.54 1.71 1.99 2.32 2.73 2.94 2.82 2.63 2.24 1.82 1.68 1.58 1.43 1.43 1.36 1.24 1.25 1.39 1.29 1.18 1.12 1.04 1.00 0.97 0.98 1.05
1.95 1.95 2.02 1.79 1.70 1.65 1.59 1.60 1.43 1.33 1.45 1.44 1.40 1.43 1.53 1.81 2.25 2.34 2.35 2.41 2.14 1.81 1.54 1.60 1.50 1.63 1.54 1.29 1.19 1.22 1.25 1.31 1.29 1.20 1.13 1.13 1.17 1.05
1.74 1.65 1.69 1.71 1.51 1.36 1.34 1.31 1.25 1.29 1.37 1.35 1.27 1.26 1.38 1.52 1.69 1.95 2.14 2.15 2.03 1.70 1.52 1.69 1.58 1.61 1.62 1.34 1.19 1.16 1.15 1.15 1.20 1.27 1.32 1.31 1.31 1.22
1.72 1.72 1.77 1.80 1.54 1.39 1.24 1.12 1.16 1.14 1.14 1.23 1.20 1.15 1.20 1.30 1.53 1.80 2.08 2.16 2.07 1.92 1.89 1.91 1.79 1.71 1.70 1.51 1.30 1.19 1.18 1.21 1.24 1.28 1.33 1.54 1.51 1.48
1.71 2.01 2.02 1.96 1.74 1.46 1.35 1.35 1.26 1.11 1.11 1.14 1.12 1.08 1.13 1.30 1.58 1.90 2.13 2.31 2.26 2.08 2.01 1.95 1.91 1.93 1.97 1.73 1.48 1.37 1.36 1.32 1.27 1.29 1.35 1.40 1.43 1.50
1.65 1.92 2.07 2.08 1.97 1.77 1.67 1.58 1.36 1.26 1.32 1.31 1.32 1.36 1.47 1.61 1.76 1.89 2.09 2.26 2.34 2.15 2.06 2.02 2.03 2.13 2.07 1.89 1.78 1.62 1.51 1.47 1.45 1.50 1.54 1.54 1.51 1.47
1.81 2.00 2.15 2.25 2.26 2.19 2.09 1.99 1.86 1.71 1.56 1.52 1.58 1.57 1.62 1.71 1.77 1.92 2.14 2.24 2.19 1.97 1.93 2.00 2.09 2.19 2.19 2.11 1.89 1.59 1.51 1.46 1.45 1.57 1.61 1.54 1.45 1.40
1.77 1.88 2.11 2.30 2.37 2.45 2.48 2.37 2.16 1.99 1.83 1.81 1.75 1.71 1.74 1.75 1.79 1.94 2.16 2.27 2.14 1.97 1.90 1.92 2.13 2.30 2.31 2.13 1.82 1.59 1.48 1.40 1.35 1.42 1.46 1.44 1.30 1.19
1.61 1.73 1.85 1.96 2.15 2.37 2.47 2.45 2.24 2.12 2.14 2.10 2.01 1.96 1.97 1.97 1.97 2.08 2.27 2.38 2.32 2.18 2.11 2.11 2.17 2.21 2.08 1.73 1.46 1.36 1.37 1.32 1.36 1.37 1.33 1.31 1.24 1.18
1.35 1.52 1.70 1.84 2.00 2.27 2.43 2.47 2.41 2.34 2.34 2.37 2.33 2.27 2.23 2.17 2.09 2.04 2.17 2.29 2.33 2.30 2.27 2.19 2.07 2.05 2.02 1.85 1.68 1.49 1.41 1.44 1.46 1.46 1.40 1.39 1.37 1.42
1.28 1.33 1.40 1.59 1.81 2.06 2.30 2.47 2.47 2.36 2.30 2.36 2.34 2.28 2.26 2.25 2.14 2.05 2.10 2.29 2.36 2.32 2.17 1.96 1.87 2.09 2.27 2.39 2.15 1.72 1.53 1.55 1.60 1.60 1.61 1.68 1.58 1.50
1.38 1.40 1.49 1.66 1.83 2.04 2.23 2.34 2.39 2.39 2.35 2.32 2.26 2.19 2.19 2.18 2.05 2.00 2.02 2.12 2.16 2.18 2.14 2.13 2.31 2.46 2.46 2.41 2.08 1.78 1.67 1.70 1.78 1.85 1.79 1.68 1.58 1.45
1.49 1.50 1.55 1.64 1.80 2.00 2.13 2.23 2.27 2.30 2.33 2.33 2.28 2.20 2.17 2.18 2.14 2.09 2.07 2.09 2.08 2.10 2.26 2.35 2.37 2.46 2.41 2.35 2.25 2.10 1.97 1.91 1.90 1.86 1.68 1.56 1.46 1.37